{"data":{"norad_id":65373,"epoch":"2026-09-20T11:47:25.664064Z","epoch_age_seconds":115572,"freshness":"FRESH","line1":"1 65373U 25190Y   26263.49126926  .00017448  00000+0  52613-3 0  9992","line2":"2 65373  53.1585 339.5445 0001363 157.2702 202.8361 15.34411227 59111","mean_motion":15.34411227,"eccentricity":0.0001363,"inclination_deg":53.1585,"raan_deg":339.5445,"arg_perigee_deg":157.2702,"mean_anomaly_deg":202.8361,"bstar":0.00052613,"rev_number":5911,"period_min":93.847071414839,"perigee_km":461.73746942401,"apogee_km":463.60227337716,"semimajor_km":6840.8068714006,"source":"CELESTRAK","updated_at":"2026-09-21T09:00:35.579740Z"}}